Time,TemperatureF,DewpointF,PressureIn,WindDirection,WindDirectionDegrees,WindSpeedMPH,WindSpeedGustMPH,Humidity,HourlyPrecipIn,Conditions,Clouds,dailyrainin,SoftwareType,DateUTC
2013-08-22 00:00:00,68.9,65.8,30.05,WSW,258,0.0,1.0,90,0.00,,---,0.00,VWS V14.01,2013-08-22 04:00:00,
2013-08-22 00:01:00,68.3,65.3,30.05,WSW,258,0.0,0.0,90,0.00,,---,0.00,VWS V14.01,2013-08-22 04:01:00,
2013-08-22 00:06:00,68.3,65.6,30.06,WSW,258,0.0,0.0,91,0.00,,---,0.00,VWS V14.01,2013-08-22 04:06:00,
2013-08-22 00:11:00,68.3,65.6,30.06,West,259,0.0,0.0,91,0.00,,---,0.00,VWS V14.01,2013-08-22 04:11:00,
2013-08-22 00:16:00,68.1,65.4,30.06,West,265,0.0,1.0,91,0.00,,---,0.00,VWS V14.01,2013-08-22 04:16:00,
2013-08-22 00:21:00,68.0,65.3,30.06,West,265,0.0,1.0,91,0.00,,---,0.00,VWS V14.01,2013-08-22 04:21:00,
2013-08-22 00:26:00,67.9,65.2,30.06,West,265,0.0,1.0,91,0.00,,---,0.00,VWS V14.01,2013-08-22 04:26:00,
2013-08-22 00:30:00,68.8,65.4,30.05,WSW,258,0.0,0.0,89,0.00,,---,0.00,VWS V14.01,2013-08-22 04:30:00,
2013-08-22 00:31:00,67.9,65.2,30.06,West,265,0.0,0.0,91,0.00,,---,0.00,VWS V14.01,2013-08-22 04:31:00,
2013-08-22 00:36:00,68.0,65.3,30.06,West,264,0.0,1.0,91,0.00,,---,0.00,VWS V14.01,2013-08-22 04:36:00,
2013-08-22 00:41:00,68.0,65.3,30.06,West,265,0.0,1.0,91,0.00,,---,0.00,VWS V14.01,2013-08-22 04:41:00,
2013-08-22 00:46:00,67.9,65.2,30.06,West,265,0.0,1.0,91,0.00,,---,0.00,VWS V14.01,2013-08-22 04:46:00,
2013-08-22 00:51:00,68.0,65.3,30.06,West,264,0.0,1.0,91,0.00,,---,0.00,VWS V14.01,2013-08-22 04:51:00,
2013-08-22 00:56:00,68.0,65.3,30.06,West,264,0.0,1.0,91,0.00,,---,0.00,VWS V14.01,2013-08-22 04:56:00,
2013-08-22 01:00:00,68.3,65.3,30.05,WSW,258,0.0,0.0,90,0.00,,---,0.00,VWS V14.01,2013-08-22 05:00:00,
2013-08-22 01:01:00,68.1,65.4,30.06,West,264,0.0,0.0,91,0.00,,---,0.00,VWS V14.01,2013-08-22 05:01:00,
2013-08-22 01:06:00,68.2,65.5,30.06,West,264,0.0,0.0,91,0.00,,---,0.00,VWS V14.01,2013-08-22 05:06:00,
2013-08-22 01:11:00,68.1,65.4,30.07,West,264,0.0,0.0,91,0.00,,---,0.00,VWS V14.01,2013-08-22 05:11:00,
2013-08-22 01:16:00,68.1,65.4,30.07,West,264,0.0,0.0,91,0.00,,---,0.00,VWS V14.01,2013-08-22 05:16:00,
2013-08-22 01:21:00,68.1,65.4,30.06,West,264,0.0,0.0,91,0.00,,---,0.00,VWS V14.01,2013-08-22 05:21:00,
2013-08-22 01:26:00,68.1,65.4,30.06,West,265,0.0,1.0,91,0.00,,---,0.00,VWS V14.01,2013-08-22 05:26:00,
2013-08-22 01:30:00,67.9,65.2,30.06,West,265,0.0,1.0,91,0.00,,---,0.00,VWS V14.01,2013-08-22 05:30:00,
2013-08-22 01:31:00,68.1,65.4,30.07,West,265,0.0,0.0,91,0.00,,---,0.00,VWS V14.01,2013-08-22 05:31:00,
2013-08-22 01:36:00,68.0,65.3,30.07,West,265,0.0,0.0,91,0.00,,---,0.00,VWS V14.01,2013-08-22 05:36:00,
2013-08-22 01:41:00,68.0,65.3,30.07,West,265,0.0,0.0,91,0.00,,---,0.00,VWS V14.01,2013-08-22 05:41:00,
2013-08-22 01:46:00,68.0,65.6,30.07,West,264,0.0,0.0,92,0.00,,---,0.00,VWS V14.01,2013-08-22 05:46:00,
2013-08-22 01:51:00,68.1,65.7,30.06,West,264,0.0,0.0,92,0.00,,---,0.00,VWS V14.01,2013-08-22 05:51:00,
2013-08-22 01:56:00,68.1,65.7,30.06,West,264,0.0,0.0,92,0.00,,---,0.00,VWS V14.01,2013-08-22 05:56:00,
2013-08-22 02:00:00,68.1,65.4,30.06,West,264,0.0,1.0,91,0.00,,---,0.00,VWS V14.01,2013-08-22 06:00:00,
2013-08-22 02:01:00,68.1,65.7,30.06,West,265,0.0,0.0,92,0.00,,---,0.00,VWS V14.01,2013-08-22 06:01:00,
2013-08-22 02:06:00,68.0,65.6,30.06,West,263,0.0,0.0,92,0.00,,---,0.00,VWS V14.01,2013-08-22 06:06:00,
2013-08-22 02:11:00,68.0,65.6,30.06,West,263,0.0,0.0,92,0.00,,---,0.00,VWS V14.01,2013-08-22 06:11:00,
2013-08-22 02:16:00,68.0,65.6,30.05,West,263,0.0,0.0,92,0.00,,---,0.00,VWS V14.01,2013-08-22 06:16:00,
2013-08-22 02:21:00,67.9,65.5,30.05,West,263,0.0,0.0,92,0.00,,---,0.00,VWS V14.01,2013-08-22 06:21:00,
2013-08-22 02:26:00,67.9,65.5,30.06,West,263,0.0,0.0,92,0.00,,---,0.00,VWS V14.01,2013-08-22 06:26:00,
2013-08-22 02:30:00,68.1,65.4,30.07,West,265,0.0,1.0,91,0.00,,---,0.00,VWS V14.01,2013-08-22 06:30:00,
2013-08-22 02:31:00,67.8,65.4,30.06,West,263,0.0,0.0,92,0.00,,---,0.00,VWS V14.01,2013-08-22 06:31:00,
2013-08-22 02:36:00,67.8,65.4,30.06,West,263,0.0,1.0,92,0.00,,---,0.00,VWS V14.01,2013-08-22 06:36:00,
2013-08-22 02:41:00,67.7,65.3,30.06,West,263,0.0,1.0,92,0.00,,---,0.00,VWS V14.01,2013-08-22 06:41:00,
2013-08-22 02:46:00,67.7,65.3,30.06,West,263,0.0,1.0,92,0.00,,---,0.00,VWS V14.01,2013-08-22 06:46:00,
2013-08-22 02:51:00,67.6,65.5,30.06,West,263,0.0,1.0,93,0.00,,---,0.00,VWS V14.01,2013-08-22 06:51:00,
2013-08-22 02:56:00,67.6,65.5,30.06,West,263,0.0,1.0,93,0.00,,---,0.00,VWS V14.01,2013-08-22 06:56:00,
2013-08-22 03:00:00,68.1,65.7,30.06,West,265,0.0,1.0,92,0.00,,---,0.00,VWS V14.01,2013-08-22 07:00:00,
2013-08-22 03:01:00,67.5,65.4,30.06,North,1,0.0,0.0,93,0.00,,---,0.00,VWS V14.01,2013-08-22 07:01:00,
2013-08-22 03:05:00,67.6,65.5,30.06,NE,34,0.0,2.0,93,0.00,,---,0.00,VWS V14.01,2013-08-22 07:05:00,
2013-08-22 03:10:00,67.6,65.5,30.06,NE,34,0.0,2.0,93,0.00,,---,0.00,VWS V14.01,2013-08-22 07:10:00,
2013-08-22 03:15:00,67.6,65.5,30.06,NNE,32,0.0,2.0,93,0.00,,---,0.00,VWS V14.01,2013-08-22 07:15:00,
2013-08-22 03:20:00,67.7,65.6,30.05,NNE,32,0.0,2.0,93,0.00,,---,0.00,VWS V14.01,2013-08-22 07:20:00,
2013-08-22 03:25:00,67.6,65.5,30.05,NNE,32,0.0,2.0,93,0.00,,---,0.00,VWS V14.01,2013-08-22 07:25:00,
2013-08-22 03:30:00,67.5,65.4,30.05,NNE,32,0.0,0.0,93,0.00,,---,0.00,VWS V14.01,2013-08-22 07:30:00,
2013-08-22 03:35:00,67.5,65.4,30.05,NNE,32,0.0,1.0,93,0.00,,---,0.00,VWS V14.01,2013-08-22 07:35:00,
2013-08-22 03:40:00,67.4,65.3,30.05,NNE,33,0.0,1.0,93,0.00,,---,0.00,VWS V14.01,2013-08-22 07:40:00,
2013-08-22 03:45:00,67.4,65.3,30.04,NNE,32,0.0,1.0,93,0.00,,---,0.00,VWS V14.01,2013-08-22 07:45:00,
2013-08-22 03:50:00,67.3,65.5,30.04,NNE,32,0.0,1.0,94,0.00,,---,0.00,VWS V14.01,2013-08-22 07:50:00,
2013-08-22 03:55:00,67.3,65.5,30.03,NNE,32,0.0,1.0,94,0.00,,---,0.00,VWS V14.01,2013-08-22 07:55:00,
2013-08-22 04:00:00,67.2,65.4,30.03,NNE,32,0.0,0.0,94,0.00,,---,0.00,VWS V14.01,2013-08-22 08:00:00,
2013-08-22 04:05:00,67.2,65.4,30.04,NNE,32,0.0,0.0,94,0.00,,---,0.00,VWS V14.01,2013-08-22 08:05:00,
2013-08-22 04:10:00,67.0,65.2,30.03,NNE,32,0.0,0.0,94,0.00,,---,0.00,VWS V14.01,2013-08-22 08:10:00,
2013-08-22 04:15:00,66.9,65.1,30.03,NNE,32,0.0,0.0,94,0.00,,---,0.00,VWS V14.01,2013-08-22 08:15:00,
2013-08-22 04:20:00,66.9,65.1,30.03,NNE,32,0.0,0.0,94,0.00,,---,0.00,VWS V14.01,2013-08-22 08:20:00,
2013-08-22 04:25:00,66.9,65.1,30.03,NNE,32,0.0,1.0,94,0.00,,---,0.00,VWS V14.01,2013-08-22 08:25:00,
2013-08-22 04:30:00,66.9,65.1,30.03,NNE,32,0.0,0.0,94,0.00,,---,0.00,VWS V14.01,2013-08-22 08:30:00,
2013-08-22 04:35:00,66.8,65.0,30.03,NNE,32,0.0,0.0,94,0.00,,---,0.00,VWS V14.01,2013-08-22 08:35:00,
2013-08-22 04:40:00,66.8,65.0,30.03,NNE,32,0.0,0.0,94,0.00,,---,0.00,VWS V14.01,2013-08-22 08:40:00,
2013-08-22 04:45:00,66.7,64.9,30.03,NNE,32,0.0,0.0,94,0.00,,---,0.00,VWS V14.01,2013-08-22 08:45:00,
2013-08-22 04:50:00,66.5,64.7,30.03,NNE,32,0.0,0.0,94,0.00,,---,0.00,VWS V14.01,2013-08-22 08:50:00,
2013-08-22 04:55:00,66.4,64.6,30.03,NNE,32,0.0,0.0,94,0.00,,---,0.00,VWS V14.01,2013-08-22 08:55:00,
2013-08-22 05:00:00,66.3,64.8,30.03,West,278,0.0,0.0,95,0.00,,---,0.00,VWS V14.01,2013-08-22 09:00:00,
2013-08-22 05:05:00,66.3,64.8,30.03,West,278,0.0,1.0,95,0.00,,---,0.00,VWS V14.01,2013-08-22 09:05:00,
2013-08-22 05:10:00,66.2,64.7,30.02,West,278,0.0,1.0,95,0.00,,---,0.00,VWS V14.01,2013-08-22 09:10:00,
2013-08-22 05:15:00,66.2,65.0,30.02,West,278,0.0,1.0,96,0.00,,---,0.00,VWS V14.01,2013-08-22 09:15:00,
2013-08-22 05:20:00,66.2,65.0,30.03,West,278,0.0,1.0,96,0.00,,---,0.00,VWS V14.01,2013-08-22 09:20:00,
2013-08-22 05:25:00,66.2,65.0,30.02,West,278,0.0,1.0,96,0.00,,---,0.00,VWS V14.01,2013-08-22 09:25:00,
2013-08-22 05:30:00,66.1,64.9,30.03,West,278,0.0,0.0,96,0.00,,---,0.00,VWS V14.01,2013-08-22 09:30:00,
2013-08-22 05:35:00,66.0,64.8,30.03,West,278,0.0,0.0,96,0.00,,---,0.00,VWS V14.01,2013-08-22 09:35:00,
2013-08-22 05:40:00,65.8,64.6,30.02,West,278,0.0,0.0,96,0.00,,---,0.00,VWS V14.01,2013-08-22 09:40:00,
2013-08-22 05:45:00,65.6,64.1,30.03,West,278,0.0,0.0,95,0.00,,---,0.00,VWS V14.01,2013-08-22 09:45:00,
2013-08-22 05:50:00,65.4,64.2,30.02,West,278,0.0,0.0,96,0.00,,---,0.00,VWS V14.01,2013-08-22 09:50:00,
2013-08-22 05:55:00,65.2,64.0,30.03,West,278,0.0,0.0,96,0.00,,---,0.00,VWS V14.01,2013-08-22 09:55:00,
2013-08-22 06:00:00,65.0,63.5,30.03,West,278,0.0,0.0,95,0.00,,---,0.00,VWS V14.01,2013-08-22 10:00:00,
2013-08-22 06:06:00,64.8,63.6,30.02,West,278,0.0,0.0,96,0.00,,---,0.00,VWS V14.01,2013-08-22 10:06:00,
2013-08-22 06:11:00,64.7,63.5,30.03,West,278,0.0,0.0,96,0.00,,---,0.00,VWS V14.01,2013-08-22 10:11:00,
2013-08-22 06:16:00,64.6,63.4,30.03,West,278,0.0,0.0,96,0.00,,---,0.00,VWS V14.01,2013-08-22 10:16:00,
2013-08-22 06:21:00,64.6,63.7,30.03,West,278,0.0,0.0,97,0.00,,---,0.00,VWS V14.01,2013-08-22 10:21:00,
2013-08-22 06:26:00,64.8,63.9,30.03,West,278,0.0,0.0,97,0.00,,---,0.00,VWS V14.01,2013-08-22 10:26:00,
2013-08-22 06:30:00,66.1,64.9,30.02,West,278,0.0,1.0,96,0.00,,---,0.00,VWS V14.01,2013-08-22 10:30:00,
2013-08-22 06:31:00,65.0,64.1,30.03,West,278,0.0,0.0,97,0.00,,---,0.00,VWS V14.01,2013-08-22 10:31:00,
2013-08-22 06:36:00,65.0,64.1,30.03,West,278,0.0,0.0,97,0.00,,---,0.00,VWS V14.01,2013-08-22 10:36:00,
2013-08-22 06:41:00,64.9,64.0,30.03,West,278,0.0,0.0,97,0.00,,---,0.00,VWS V14.01,2013-08-22 10:41:00,
2013-08-22 06:46:00,64.9,64.0,30.04,West,278,0.0,0.0,97,0.00,,---,0.00,VWS V14.01,2013-08-22 10:46:00,
2013-08-22 07:00:00,65.0,63.5,30.03,West,278,0.0,1.0,95,0.00,,---,0.00,VWS V14.01,2013-08-22 11:00:00,
2013-08-22 07:30:00,64.9,64.0,30.03,West,278,0.0,0.0,97,0.00,,---,0.00,VWS V14.01,2013-08-22 11:30:00,
2013-08-22 08:00:00,64.5,63.6,30.04,West,278,0.0,1.0,97,0.00,,---,0.00,VWS V14.01,2013-08-22 12:00:00,
2013-08-22 08:27:00,68.6,66.2,30.04,SE,136,0.0,3.0,92,0.00,,---,0.00,VWS V14.01,2013-08-22 12:27:00,
2013-08-22 08:30:00,64.9,64.0,30.04,West,278,0.0,1.0,97,0.00,,---,0.00,VWS V14.01,2013-08-22 12:30:00,
2013-08-22 08:32:00,68.8,66.1,30.04,ESE,112,0.0,1.0,91,0.00,,---,0.00,VWS V14.01,2013-08-22 12:32:00,
2013-08-22 08:37:00,69.2,66.5,30.03,ESE,111,0.0,1.0,91,0.00,,---,0.00,VWS V14.01,2013-08-22 12:37:00,
2013-08-22 08:42:00,69.9,66.8,30.03,ESE,108,0.0,1.0,90,0.00,,---,0.00,VWS V14.01,2013-08-22 12:42:00,
2013-08-22 08:47:00,70.5,67.1,30.03,ESE,104,0.0,1.0,89,0.00,,---,0.00,VWS V14.01,2013-08-22 12:47:00,
2013-08-22 08:52:00,70.5,66.8,30.03,ENE,75,0.0,1.0,88,0.00,,---,0.00,VWS V14.01,2013-08-22 12:52:00,
2013-08-22 08:57:00,70.5,66.8,30.03,NNE,25,0.0,2.0,88,0.00,,---,0.00,VWS V14.01,2013-08-22 12:57:00,
2013-08-22 09:00:00,70.5,66.8,30.03,NNE,29,1.0,2.0,88,0.00,,---,0.00,VWS V14.01,2013-08-22 13:00:00,
2013-08-22 09:05:00,70.8,67.1,30.03,East,91,0.0,2.0,88,0.00,,---,0.00,VWS V14.01,2013-08-22 13:05:00,
2013-08-22 09:10:00,71.2,67.1,30.04,NNE,16,0.0,3.0,87,0.00,,---,0.00,VWS V14.01,2013-08-22 13:10:00,
2013-08-22 09:15:00,71.2,67.1,30.04,NNE,32,0.0,3.0,87,0.00,,---,0.00,VWS V14.01,2013-08-22 13:15:00,
2013-08-22 09:20:00,71.5,67.4,30.04,NE,51,0.0,3.0,87,0.00,,---,0.00,VWS V14.01,2013-08-22 13:20:00,
2013-08-22 09:25:00,71.7,67.3,30.04,ESE,109,1.0,3.0,86,0.00,,---,0.00,VWS V14.01,2013-08-22 13:25:00,
2013-08-22 09:30:00,71.8,67.4,30.03,East,91,0.0,0.0,86,0.00,,---,0.00,VWS V14.01,2013-08-22 13:30:00,
2013-08-22 09:35:00,72.0,67.2,30.03,ESE,121,1.0,2.0,85,0.00,,---,0.00,VWS V14.01,2013-08-22 13:35:00,
2013-08-22 09:40:00,72.2,67.8,30.03,ESE,111,0.0,2.0,86,0.00,,---,0.00,VWS V14.01,2013-08-22 13:40:00,
2013-08-22 09:45:00,73.2,68.4,30.03,NNE,25,0.0,2.0,85,0.00,,---,0.00,VWS V14.01,2013-08-22 13:45:00,
2013-08-22 09:50:00,74.0,68.5,30.03,NNE,25,0.0,2.0,83,0.00,,---,0.00,VWS V14.01,2013-08-22 13:50:00,
2013-08-22 09:55:00,74.6,68.8,30.03,SW,226,0.0,2.0,82,0.00,,---,0.00,VWS V14.01,2013-08-22 13:55:00,
2013-08-22 10:00:00,74.8,68.6,30.03,SW,220,0.0,1.0,81,0.00,,---,0.00,VWS V14.01,2013-08-22 14:00:00,
2013-08-22 10:05:00,74.8,68.6,30.03,South,178,0.0,2.0,81,0.00,,---,0.00,VWS V14.01,2013-08-22 14:05:00,
2013-08-22 10:10:00,75.3,69.4,30.03,ESE,108,1.0,3.0,82,0.00,,---,0.00,VWS V14.01,2013-08-22 14:10:00,
2013-08-22 10:15:00,75.9,68.9,30.03,SE,130,1.0,5.0,79,0.00,,---,0.00,VWS V14.01,2013-08-22 14:15:00,
2013-08-22 10:20:00,76.1,69.1,30.03,SE,146,0.0,5.0,79,0.00,,---,0.00,VWS V14.01,2013-08-22 14:20:00,
2013-08-22 10:25:00,77.1,69.3,30.03,SW,236,0.0,5.0,77,0.00,,---,0.00,VWS V14.01,2013-08-22 14:25:00,
2013-08-22 10:30:00,78.2,69.6,30.03,WSW,250,1.0,2.0,75,0.00,,---,0.00,VWS V14.01,2013-08-22 14:30:00,
2013-08-22 10:35:00,78.2,69.6,30.03,East,83,1.0,4.0,75,0.00,,---,0.00,VWS V14.01,2013-08-22 14:35:00,
2013-08-22 10:40:00,77.9,69.3,30.03,SSE,154,0.0,4.0,75,0.00,,---,0.00,VWS V14.01,2013-08-22 14:40:00,
2013-08-22 10:45:00,77.7,68.8,30.02,SSE,148,0.0,7.0,74,0.00,,---,0.00,VWS V14.01,2013-08-22 14:45:00,
2013-08-22 10:50:00,77.9,69.7,30.02,SE,131,0.0,7.0,76,0.00,,---,0.00,VWS V14.01,2013-08-22 14:50:00,
2013-08-22 10:55:00,78.3,68.9,30.02,SSW,209,3.0,7.0,73,0.00,,---,0.00,VWS V14.01,2013-08-22 14:55:00,
2013-08-22 11:00:00,78.7,69.3,30.02,SSE,168,0.0,0.0,73,0.00,,---,0.00,VWS V14.01,2013-08-22 15:00:00,
2013-08-22 11:05:00,79.3,69.5,30.03,NNE,23,0.0,4.0,72,0.00,,---,0.00,VWS V14.01,2013-08-22 15:05:00,
2013-08-22 11:10:00,80.7,70.0,30.03,West,281,1.0,4.0,70,0.00,,---,0.00,VWS V14.01,2013-08-22 15:10:00,
2013-08-22 11:15:00,81.2,69.2,30.02,NW,323,1.0,4.0,67,0.00,,---,0.00,VWS V14.01,2013-08-22 15:15:00,
2013-08-22 11:20:00,81.3,69.3,30.02,SSW,206,1.0,4.0,67,0.00,,---,0.00,VWS V14.01,2013-08-22 15:20:00,
2013-08-22 11:25:00,81.3,68.9,30.02,NNW,340,1.0,4.0,66,0.00,,---,0.00,VWS V14.01,2013-08-22 15:25:00,
2013-08-22 11:30:00,80.4,69.3,30.02,NNW,335,1.0,1.0,69,0.00,,---,0.00,VWS V14.01,2013-08-22 15:30:00,
2013-08-22 11:35:00,80.7,69.2,30.02,WNW,296,0.0,1.0,68,0.00,,---,0.00,VWS V14.01,2013-08-22 15:35:00,
2013-08-22 11:40:00,81.2,69.6,30.01,NW,319,2.0,3.0,68,0.00,,---,0.00,VWS V14.01,2013-08-22 15:40:00,
2013-08-22 11:45:00,81.7,69.7,30.02,NNW,330,0.0,8.0,67,0.00,,---,0.00,VWS V14.01,2013-08-22 15:45:00,
2013-08-22 11:50:00,82.5,69.1,30.01,West,280,1.0,8.0,64,0.00,,---,0.00,VWS V14.01,2013-08-22 15:50:00,
2013-08-22 11:55:00,82.8,69.4,30.01,West,271,0.0,8.0,64,0.00,,---,0.00,VWS V14.01,2013-08-22 15:55:00,
2013-08-22 12:00:00,83.2,69.3,30.01,NW,307,1.0,2.0,63,0.00,,---,0.00,VWS V14.01,2013-08-22 16:00:00,
2013-08-22 12:05:00,83.2,67.9,30.01,WSW,244,3.0,4.0,60,0.00,,---,0.00,VWS V14.01,2013-08-22 16:05:00,
2013-08-22 12:10:00,82.2,67.4,30.00,SSW,213,0.0,6.0,61,0.00,,---,0.00,VWS V14.01,2013-08-22 16:10:00,
2013-08-22 12:15:00,82.1,67.3,30.00,WSW,240,2.0,6.0,61,0.00,,---,0.00,VWS V14.01,2013-08-22 16:15:00,
2013-08-22 12:20:00,82.0,67.2,30.00,SSE,149,0.0,6.0,61,0.00,,---,0.00,VWS V14.01,2013-08-22 16:20:00,
2013-08-22 12:25:00,82.2,67.9,30.00,SW,217,6.0,6.0,62,0.00,,---,0.00,VWS V14.01,2013-08-22 16:25:00,
2013-08-22 12:30:00,81.7,67.4,29.99,WSW,256,1.0,2.0,62,0.00,,---,0.00,VWS V14.01,2013-08-22 16:30:00,
2013-08-22 12:35:00,81.5,67.2,29.98,NW,318,1.0,3.0,62,0.00,,---,0.00,VWS V14.01,2013-08-22 16:35:00,
2013-08-22 12:40:00,81.8,68.0,29.98,SE,125,2.0,3.0,63,0.00,,---,0.00,VWS V14.01,2013-08-22 16:40:00,
2013-08-22 12:45:00,82.7,67.9,29.98,WSW,251,1.0,4.0,61,0.00,,---,0.00,VWS V14.01,2013-08-22 16:45:00,
2013-08-22 12:50:00,83.8,68.4,29.97,East,98,1.0,4.0,60,0.00,,---,0.00,VWS V14.01,2013-08-22 16:50:00,
2013-08-22 12:55:00,84.0,68.1,29.97,ESE,114,0.0,6.0,59,0.00,,---,0.00,VWS V14.01,2013-08-22 16:55:00,
2013-08-22 13:00:00,84.2,67.3,29.97,SW,218,0.0,0.0,57,0.00,,---,0.00,VWS V14.01,2013-08-22 17:00:00,
2013-08-22 13:05:00,84.3,67.9,29.97,NNE,31,0.0,3.0,58,0.00,,---,0.00,VWS V14.01,2013-08-22 17:05:00,
2013-08-22 13:10:00,84.5,69.1,29.97,NNW,339,2.0,4.0,60,0.00,,---,0.00,VWS V14.01,2013-08-22 17:10:00,
2013-08-22 13:15:00,84.8,68.4,29.97,North,3,0.0,7.0,58,0.00,,---,0.00,VWS V14.01,2013-08-22 17:15:00,
2013-08-22 13:20:00,84.9,68.0,29.97,West,259,0.0,7.0,57,0.00,,---,0.00,VWS V14.01,2013-08-22 17:20:00,
2013-08-22 13:25:00,85.4,68.4,29.97,WNW,286,3.0,8.0,57,0.00,,---,0.00,VWS V14.01,2013-08-22 17:25:00,
2013-08-22 13:30:00,85.5,68.5,29.97,SSW,212,3.0,3.0,57,0.00,,---,0.00,VWS V14.01,2013-08-22 17:30:00,
2013-08-22 13:35:00,85.5,68.5,29.97,NW,326,2.0,4.0,57,0.00,,---,0.00,VWS V14.01,2013-08-22 17:35:00,
2013-08-22 13:42:00,85.0,68.1,29.97,WNW,294,1.0,4.0,57,0.00,,---,0.00,VWS V14.01,2013-08-22 17:42:00,
2013-08-22 13:47:00,84.3,67.4,29.97,NNW,327,1.0,4.0,57,0.00,,---,0.00,VWS V14.01,2013-08-22 17:47:00,
2013-08-22 13:52:00,83.6,67.3,29.96,NNW,347,0.0,5.0,58,0.00,,---,0.00,VWS V14.01,2013-08-22 17:52:00,
2013-08-22 13:57:00,84.2,68.8,29.97,SSE,148,0.0,5.0,60,0.00,,---,0.00,VWS V14.01,2013-08-22 17:57:00,
2013-08-22 14:00:00,84.2,67.3,29.97,SW,220,0.0,6.0,57,0.00,,---,0.00,VWS V14.01,2013-08-22 18:00:00,
2013-08-22 14:02:00,85.1,69.2,29.96,WSW,248,2.0,4.0,59,0.00,,---,0.00,VWS V14.01,2013-08-22 18:02:00,
2013-08-22 14:07:00,84.7,67.3,29.96,WNW,294,2.0,6.0,56,0.00,,---,0.00,VWS V14.01,2013-08-22 18:07:00,
2013-08-22 14:12:00,84.5,67.6,29.96,SSW,206,1.0,6.0,57,0.00,,---,0.00,VWS V14.01,2013-08-22 18:12:00,
2013-08-22 14:17:00,84.6,68.2,29.95,WSW,239,2.0,6.0,58,0.00,,---,0.00,VWS V14.01,2013-08-22 18:17:00,
2013-08-22 14:22:00,85.0,68.1,29.95,WSW,252,0.0,6.0,57,0.00,,---,0.00,VWS V14.01,2013-08-22 18:22:00,
2013-08-22 14:27:00,85.5,68.0,29.95,WSW,245,0.0,6.0,56,0.00,,---,0.00,VWS V14.01,2013-08-22 18:27:00,
2013-08-22 14:30:00,85.5,68.5,29.97,SW,228,0.0,8.0,57,0.00,,---,0.00,VWS V14.01,2013-08-22 18:30:00,
2013-08-22 14:31:00,86.1,69.1,29.95,West,270,2.0,4.0,57,0.00,,---,0.00,VWS V14.01,2013-08-22 18:31:00,
2013-08-22 14:36:00,86.2,67.6,29.95,SSW,199,1.0,6.0,54,0.00,,---,0.00,VWS V14.01,2013-08-22 18:36:00,
2013-08-22 14:42:00,86.1,67.5,29.94,SW,228,2.0,6.0,54,0.00,,---,0.00,VWS V14.01,2013-08-22 18:42:00,
2013-08-22 14:47:00,86.1,68.1,29.94,WSW,240,1.0,6.0,55,0.00,,---,0.00,VWS V14.01,2013-08-22 18:47:00,
2013-08-22 14:52:00,85.5,67.0,29.94,NW,307,1.0,6.0,54,0.00,,---,0.00,VWS V14.01,2013-08-22 18:52:00,
2013-08-22 14:56:00,85.6,68.1,29.94,SW,219,1.0,8.0,56,0.00,,---,0.00,VWS V14.01,2013-08-22 18:56:00,
2013-08-22 15:00:00,84.8,68.4,29.97,WNW,292,1.0,7.0,58,0.00,,---,0.00,VWS V14.01,2013-08-22 19:00:00,
2013-08-22 15:01:00,86.0,66.9,29.93,WSW,240,3.0,7.0,53,0.00,,---,0.00,VWS V14.01,2013-08-22 19:01:00,
2013-08-22 15:07:00,85.9,66.8,29.93,South,169,0.0,7.0,53,0.00,,---,0.00,VWS V14.01,2013-08-22 19:07:00,
2013-08-22 15:12:00,86.2,67.6,29.93,NW,315,3.0,7.0,54,0.00,,---,0.00,VWS V14.01,2013-08-22 19:12:00,
2013-08-22 15:17:00,86.3,68.2,29.93,WSW,237,1.0,7.0,55,0.00,,---,0.00,VWS V14.01,2013-08-22 19:17:00,
2013-08-22 15:22:00,86.4,67.8,29.92,WSW,249,7.0,8.0,54,0.00,,---,0.00,VWS V14.01,2013-08-22 19:22:00,
2013-08-22 15:26:00,86.3,67.7,29.92,SW,229,4.0,8.0,54,0.00,,---,0.00,VWS V14.01,2013-08-22 19:26:00,
2013-08-22 15:30:00,85.8,68.8,29.95,NNW,329,1.0,6.0,57,0.00,,---,0.00,VWS V14.01,2013-08-22 19:30:00,
2013-08-22 15:31:00,86.3,67.7,29.92,SW,229,1.0,5.0,54,0.00,,---,0.00,VWS V14.01,2013-08-22 19:31:00,
2013-08-22 15:36:00,86.4,66.7,29.92,SW,225,0.0,6.0,52,0.00,,---,0.00,VWS V14.01,2013-08-22 19:36:00,
2013-08-22 15:41:00,86.3,67.2,29.91,NW,315,0.0,6.0,53,0.00,,---,0.00,VWS V14.01,2013-08-22 19:41:00,
2013-08-22 15:46:00,86.2,67.6,29.91,NW,326,0.0,6.0,54,0.00,,---,0.00,VWS V14.01,2013-08-22 19:46:00,
2013-08-22 15:51:00,86.5,66.8,29.91,WSW,244,3.0,6.0,52,0.00,,---,0.00,VWS V14.01,2013-08-22 19:51:00,
2013-08-22 15:56:00,86.8,67.6,29.91,SSW,207,2.0,6.0,53,0.00,,---,0.00,VWS V14.01,2013-08-22 19:56:00,
2013-08-22 16:00:00,85.9,66.8,29.94,SW,232,1.0,8.0,53,0.00,,---,0.00,VWS V14.01,2013-08-22 20:00:00,
2013-08-22 16:01:00,87.1,67.4,29.90,SSW,204,2.0,5.0,52,0.00,,---,0.00,VWS V14.01,2013-08-22 20:01:00,
2013-08-22 16:06:00,86.8,67.1,29.90,WSW,252,1.0,5.0,52,0.00,,---,0.00,VWS V14.01,2013-08-22 20:06:00,
2013-08-22 16:11:00,86.9,67.2,29.90,WSW,252,2.0,5.0,52,0.00,,---,0.00,VWS V14.01,2013-08-22 20:11:00,
2013-08-22 16:16:00,86.7,66.4,29.90,NW,323,3.0,7.0,51,0.00,,---,0.00,VWS V14.01,2013-08-22 20:16:00,
2013-08-22 16:21:00,86.7,65.3,29.90,North,4,1.0,7.0,49,0.00,,---,0.00,VWS V14.01,2013-08-22 20:21:00,
2013-08-22 16:26:00,86.5,66.2,29.90,NNW,334,3.0,7.0,51,0.00,,---,0.00,VWS V14.01,2013-08-22 20:26:00,
2013-08-22 16:30:00,86.3,67.7,29.92,South,173,3.0,8.0,54,0.00,,---,0.00,VWS V14.01,2013-08-22 20:30:00,
2013-08-22 16:31:00,86.7,65.9,29.90,South,172,6.0,8.0,50,0.00,,---,0.00,VWS V14.01,2013-08-22 20:31:00,
2013-08-22 16:36:00,86.7,66.4,29.90,WNW,290,0.0,8.0,51,0.00,,---,0.00,VWS V14.01,2013-08-22 20:36:00,
2013-08-22 16:41:00,86.7,66.4,29.90,NNW,327,2.0,8.0,51,0.00,,---,0.00,VWS V14.01,2013-08-22 20:41:00,
2013-08-22 16:46:00,86.5,66.8,29.90,NNW,339,1.0,8.0,52,0.00,,---,0.00,VWS V14.01,2013-08-22 20:46:00,
2013-08-22 16:51:00,86.1,66.4,29.90,SW,227,1.0,8.0,52,0.00,,---,0.00,VWS V14.01,2013-08-22 20:51:00,
2013-08-22 16:56:00,86.2,66.5,29.90,South,189,0.0,8.0,52,0.00,,---,0.00,VWS V14.01,2013-08-22 20:56:00,
2013-08-22 17:00:00,87.1,67.4,29.91,SW,235,2.0,6.0,52,0.00,,---,0.00,VWS V14.01,2013-08-22 21:00:00,
2013-08-22 17:01:00,86.2,66.5,29.90,NNW,332,1.0,4.0,52,0.00,,---,0.00,VWS V14.01,2013-08-22 21:01:00,
2013-08-22 17:06:00,86.2,66.5,29.89,SW,214,2.0,6.0,52,0.00,,---,0.00,VWS V14.01,2013-08-22 21:06:00,
2013-08-22 17:11:00,86.2,66.5,29.89,WNW,303,0.0,6.0,52,0.00,,---,0.00,VWS V14.01,2013-08-22 21:11:00,
2013-08-22 17:16:00,86.4,66.2,29.89,SSW,196,5.0,6.0,51,0.00,,---,0.00,VWS V14.01,2013-08-22 21:16:00,
2013-08-22 17:21:00,86.8,65.9,29.89,SSW,199,2.0,6.0,50,0.00,,---,0.00,VWS V14.01,2013-08-22 21:21:00,
2013-08-22 17:26:00,86.8,65.9,29.89,SSW,198,0.0,6.0,50,0.00,,---,0.00,VWS V14.01,2013-08-22 21:26:00,
2013-08-22 17:30:00,86.6,65.8,29.90,SSW,211,0.0,7.0,50,0.00,,---,0.00,VWS V14.01,2013-08-22 21:30:00,
2013-08-22 17:31:00,86.5,66.2,29.89,South,175,2.0,4.0,51,0.00,,---,0.00,VWS V14.01,2013-08-22 21:31:00,
2013-08-22 17:36:00,85.9,65.7,29.89,SW,222,1.0,6.0,51,0.00,,---,0.00,VWS V14.01,2013-08-22 21:36:00,
2013-08-22 17:41:00,85.4,65.8,29.89,SSW,212,1.0,6.0,52,0.00,,---,0.00,VWS V14.01,2013-08-22 21:41:00,
2013-08-22 17:46:00,85.0,65.4,29.89,South,183,4.0,6.0,52,0.00,,---,0.00,VWS V14.01,2013-08-22 21:46:00,
2013-08-22 17:51:00,84.6,65.6,29.89,SW,226,1.0,6.0,53,0.00,,---,0.00,VWS V14.01,2013-08-22 21:51:00,
2013-08-22 17:56:00,84.2,65.8,29.89,West,278,1.0,6.0,54,0.00,,---,0.00,VWS V14.01,2013-08-22 21:56:00,
2013-08-22 18:00:00,86.2,66.5,29.90,SW,220,2.0,8.0,52,0.00,,---,0.00,VWS V14.01,2013-08-22 22:00:00,
2013-08-22 18:01:00,84.0,66.1,29.89,SW,236,1.0,2.0,55,0.00,,---,0.00,VWS V14.01,2013-08-22 22:01:00,
2013-08-22 18:06:00,83.9,66.0,29.89,WSW,256,0.0,2.0,55,0.00,,---,0.00,VWS V14.01,2013-08-22 22:06:00,
2013-08-22 18:11:00,83.5,66.2,29.89,WSW,243,0.0,3.0,56,0.00,,---,0.00,VWS V14.01,2013-08-22 22:11:00,
2013-08-22 18:16:00,83.2,65.9,29.89,SW,229,0.0,3.0,56,0.00,,---,0.00,VWS V14.01,2013-08-22 22:16:00,
2013-08-22 18:21:00,82.9,66.1,29.89,SW,236,0.0,3.0,57,0.00,,---,0.00,VWS V14.01,2013-08-22 22:21:00,
2013-08-22 18:26:00,82.5,66.2,29.89,SW,219,1.0,3.0,58,0.00,,---,0.00,VWS V14.01,2013-08-22 22:26:00,
2013-08-22 18:30:00,86.6,65.8,29.89,SW,235,1.0,6.0,50,0.00,,---,0.00,VWS V14.01,2013-08-22 22:30:00,
2013-08-22 18:31:00,82.1,65.9,29.89,SW,218,1.0,3.0,58,0.00,,---,0.00,VWS V14.01,2013-08-22 22:31:00,
2013-08-22 18:36:00,81.8,65.6,29.89,SW,231,0.0,3.0,58,0.00,,---,0.00,VWS V14.01,2013-08-22 22:36:00,
2013-08-22 18:41:00,81.6,65.9,29.89,SW,233,0.0,3.0,59,0.00,,---,0.00,VWS V14.01,2013-08-22 22:41:00,
2013-08-22 18:46:00,81.5,66.3,29.89,SW,233,0.0,3.0,60,0.00,,---,0.00,VWS V14.01,2013-08-22 22:46:00,
2013-08-22 18:51:00,80.0,63.9,29.91,SSW,205,10.0,15.0,58,0.00,,---,0.00,VWS V14.01,2013-08-22 22:51:00,
2013-08-22 18:56:00,74.9,64.9,29.93,ENE,77,5.0,20.0,71,0.08,,---,0.08,VWS V14.01,2013-08-22 22:56:00,
2013-08-22 19:00:00,71.0,64.2,29.93,NW,325,1.0,20.0,79,0.14,,---,0.14,VWS V14.01,2013-08-22 23:00:00,
2013-08-22 19:01:00,69.9,64.5,29.93,NNW,339,1.0,7.0,83,0.17,,---,0.17,VWS V14.01,2013-08-22 23:01:00,
2013-08-22 19:06:00,68.1,64.4,29.93,SW,223,1.0,7.0,88,0.21,,---,0.21,VWS V14.01,2013-08-22 23:06:00,
2013-08-22 19:11:00,67.3,64.3,29.93,SSE,167,0.0,7.0,90,0.22,,---,0.22,VWS V14.01,2013-08-22 23:11:00,
2013-08-22 19:16:00,67.0,64.9,29.93,SSE,156,0.0,7.0,93,0.23,,---,0.23,VWS V14.01,2013-08-22 23:16:00,
2013-08-22 19:21:00,66.8,64.7,29.94,SE,145,0.0,7.0,93,0.23,,---,0.23,VWS V14.01,2013-08-22 23:21:00,
2013-08-22 19:26:00,67.1,65.3,29.94,WSW,239,3.0,7.0,94,0.23,,---,0.23,VWS V14.01,2013-08-22 23:26:00,
2013-08-22 19:30:00,82.3,66.1,29.89,SW,224,0.0,3.0,58,0.00,,---,0.00,VWS V14.01,2013-08-22 23:30:00,
2013-08-22 19:31:00,67.5,65.4,29.94,SW,217,0.0,1.0,93,0.24,,---,0.24,VWS V14.01,2013-08-22 23:31:00,
2013-08-22 19:36:00,67.4,65.3,29.93,SW,217,0.0,1.0,93,0.24,,---,0.24,VWS V14.01,2013-08-22 23:36:00,
2013-08-22 19:41:00,67.2,65.4,29.93,SW,217,0.0,1.0,94,0.24,,---,0.24,VWS V14.01,2013-08-22 23:41:00,
2013-08-22 19:46:00,67.1,65.3,29.93,NNE,21,0.0,1.0,94,0.25,,---,0.25,VWS V14.01,2013-08-22 23:46:00,
2013-08-22 19:51:00,67.1,65.6,29.93,NNE,21,0.0,1.0,95,0.25,,---,0.25,VWS V14.01,2013-08-22 23:51:00,
2013-08-22 19:56:00,67.0,65.5,29.93,NNE,21,0.0,1.0,95,0.25,,---,0.25,VWS V14.01,2013-08-22 23:56:00,
2013-08-22 20:00:00,71.0,64.2,29.93,NW,325,1.0,20.0,79,0.14,,---,0.14,VWS V14.01,2013-08-23 00:00:00,
2013-08-22 20:01:00,67.1,65.9,29.93,NNE,18,0.0,0.0,96,0.11,,---,0.25,VWS V14.01,2013-08-23 00:01:00,
2013-08-22 20:06:00,67.2,66.0,29.94,NNE,18,0.0,0.0,96,0.11,,---,0.25,VWS V14.01,2013-08-23 00:06:00,
2013-08-22 20:11:00,67.2,66.0,29.94,NW,325,0.0,2.0,96,0.11,,---,0.25,VWS V14.01,2013-08-23 00:11:00,
2013-08-22 20:16:00,67.3,66.1,29.94,NNE,20,0.0,2.0,96,0.11,,---,0.25,VWS V14.01,2013-08-23 00:16:00,
2013-08-22 20:21:00,67.2,66.0,29.94,NW,314,0.0,2.0,96,0.11,,---,0.25,VWS V14.01,2013-08-23 00:21:00,
2013-08-22 20:26:00,67.2,66.0,29.94,NW,319,0.0,2.0,96,0.11,,---,0.25,VWS V14.01,2013-08-23 00:26:00,
2013-08-22 20:30:00,67.4,65.3,29.94,SSW,208,1.0,7.0,93,0.23,,---,0.23,VWS V14.01,2013-08-23 00:30:00,
2013-08-22 20:31:00,67.2,66.0,29.94,NNW,330,0.0,1.0,96,0.02,,---,0.25,VWS V14.01,2013-08-23 00:31:00,
2013-08-22 20:36:00,67.1,65.9,29.94,NW,322,0.0,1.0,96,0.02,,---,0.25,VWS V14.01,2013-08-23 00:36:00,
2013-08-22 20:41:00,67.1,65.9,29.94,NW,323,0.0,1.0,96,0.02,,---,0.25,VWS V14.01,2013-08-23 00:41:00,
2013-08-22 20:46:00,67.1,65.9,29.94,NW,323,0.0,1.0,96,0.02,,---,0.25,VWS V14.01,2013-08-23 00:46:00,
2013-08-22 20:51:00,67.1,66.2,29.95,NW,323,0.0,1.0,97,0.02,,---,0.25,VWS V14.01,2013-08-23 00:51:00,
2013-08-22 20:56:00,67.1,66.2,29.95,NW,323,0.0,1.0,97,0.02,,---,0.25,VWS V14.01,2013-08-23 00:56:00,
2013-08-22 21:00:00,67.0,65.5,29.93,NNE,18,0.0,1.0,95,0.25,,---,0.25,VWS V14.01,2013-08-23 01:00:00,
2013-08-22 21:01:00,67.0,66.1,29.96,NW,309,0.0,1.0,97,0.00,,---,0.25,VWS V14.01,2013-08-23 01:01:00,
2013-08-22 21:06:00,66.9,66.0,29.95,NW,309,0.0,1.0,97,0.00,,---,0.25,VWS V14.01,2013-08-23 01:06:00,
2013-08-22 21:11:00,66.9,66.0,29.95,NW,309,0.0,1.0,97,0.00,,---,0.25,VWS V14.01,2013-08-23 01:11:00,
2013-08-22 21:16:00,66.9,66.0,29.96,NW,309,0.0,1.0,97,0.00,,---,0.25,VWS V14.01,2013-08-23 01:16:00,
2013-08-22 21:21:00,66.9,66.0,29.96,NW,307,0.0,1.0,97,0.00,,---,0.25,VWS V14.01,2013-08-23 01:21:00,
2013-08-22 21:26:00,66.8,65.9,29.97,NW,308,0.0,1.0,97,0.00,,---,0.25,VWS V14.01,2013-08-23 01:26:00,
2013-08-22 21:30:00,67.2,66.0,29.94,NNW,330,1.0,2.0,96,0.11,,---,0.25,VWS V14.01,2013-08-23 01:30:00,
2013-08-22 21:31:00,66.8,65.9,29.97,East,100,0.0,0.0,97,0.00,,---,0.25,VWS V14.01,2013-08-23 01:31:00,
2013-08-22 21:36:00,66.8,65.9,29.96,East,99,0.0,0.0,97,0.00,,---,0.25,VWS V14.01,2013-08-23 01:36:00,
2013-08-22 21:41:00,66.7,65.8,29.96,East,98,0.0,0.0,97,0.00,,---,0.25,VWS V14.01,2013-08-23 01:41:00,
2013-08-22 21:46:00,66.7,65.8,29.97,East,99,0.0,0.0,97,0.00,,---,0.25,VWS V14.01,2013-08-23 01:46:00,
2013-08-22 21:51:00,66.7,65.8,29.97,NE,34,0.0,1.0,97,0.00,,---,0.25,VWS V14.01,2013-08-23 01:51:00,
2013-08-22 21:56:00,66.5,65.6,29.97,NE,34,0.0,1.0,97,0.00,,---,0.25,VWS V14.01,2013-08-23 01:56:00,
2013-08-22 22:00:00,67.0,66.1,29.95,NW,309,0.0,1.0,97,0.02,,---,0.25,VWS V14.01,2013-08-23 02:00:00,
2013-08-22 22:01:00,66.4,65.5,29.97,NE,34,0.0,0.0,97,0.00,,---,0.25,VWS V14.01,2013-08-23 02:01:00,
2013-08-22 22:06:00,66.2,65.3,29.97,NE,34,0.0,0.0,97,0.00,,---,0.25,VWS V14.01,2013-08-23 02:06:00,
2013-08-22 22:11:00,66.1,65.2,29.97,NE,34,0.0,0.0,97,0.00,,---,0.25,VWS V14.01,2013-08-23 02:11:00,
2013-08-22 22:16:00,66.1,65.5,29.97,NE,34,0.0,0.0,98,0.01,,---,0.26,VWS V14.01,2013-08-23 02:16:00,
2013-08-22 22:21:00,66.2,65.6,29.97,NE,34,0.0,0.0,98,0.01,,---,0.26,VWS V14.01,2013-08-23 02:21:00,
2013-08-22 22:26:00,66.2,65.6,29.97,NE,34,0.0,0.0,98,0.01,,---,0.26,VWS V14.01,2013-08-23 02:26:00,
2013-08-22 22:30:00,66.8,65.9,29.97,East,98,0.0,1.0,97,0.00,,---,0.25,VWS V14.01,2013-08-23 02:30:00,
2013-08-22 22:31:00,66.2,65.6,29.97,NE,34,0.0,0.0,98,0.01,,---,0.26,VWS V14.01,2013-08-23 02:31:00,
2013-08-22 22:36:00,66.1,65.5,29.97,NE,34,0.0,0.0,98,0.01,,---,0.26,VWS V14.01,2013-08-23 02:36:00,
2013-08-22 22:41:00,66.1,65.5,29.97,NE,34,0.0,0.0,98,0.01,,---,0.26,VWS V14.01,2013-08-23 02:41:00,
2013-08-22 22:46:00,66.1,65.5,29.96,NE,34,0.0,0.0,98,0.01,,---,0.26,VWS V14.01,2013-08-23 02:46:00,
2013-08-22 22:51:00,66.1,65.5,29.96,NE,34,0.0,0.0,98,0.01,,---,0.26,VWS V14.01,2013-08-23 02:51:00,
2013-08-22 22:56:00,66.0,65.4,29.96,NE,34,0.0,0.0,98,0.01,,---,0.26,VWS V14.01,2013-08-23 02:56:00,
2013-08-22 23:00:00,66.4,65.5,29.97,NE,34,0.0,1.0,97,0.00,,---,0.25,VWS V14.01,2013-08-23 03:00:00,
2013-08-22 23:01:00,66.0,65.4,29.96,NE,34,0.0,0.0,98,0.01,,---,0.26,VWS V14.01,2013-08-23 03:01:00,
2013-08-22 23:06:00,65.8,65.2,29.96,NE,34,0.0,0.0,98,0.01,,---,0.26,VWS V14.01,2013-08-23 03:06:00,
2013-08-22 23:11:00,65.6,65.0,29.96,NE,34,0.0,0.0,98,0.01,,---,0.26,VWS V14.01,2013-08-23 03:11:00,
2013-08-22 23:16:00,65.6,65.0,29.96,NE,34,0.0,0.0,98,0.01,,---,0.26,VWS V14.01,2013-08-23 03:16:00,
2013-08-22 23:21:00,65.6,65.0,29.97,NE,34,0.0,0.0,98,0.01,,---,0.26,VWS V14.01,2013-08-23 03:21:00,
2013-08-22 23:26:00,65.7,65.1,29.96,NE,34,0.0,1.0,98,0.01,,---,0.26,VWS V14.01,2013-08-23 03:26:00,
2013-08-22 23:30:00,66.2,65.6,29.97,NE,34,0.0,0.0,98,0.01,,---,0.26,VWS V14.01,2013-08-23 03:30:00,
2013-08-22 23:31:00,65.7,65.1,29.97,NE,34,0.0,0.0,98,0.00,,---,0.26,VWS V14.01,2013-08-23 03:31:00,
2013-08-22 23:36:00,65.8,65.2,29.97,NE,34,0.0,0.0,98,0.00,,---,0.26,VWS V14.01,2013-08-23 03:36:00,
2013-08-22 23:41:00,65.7,65.1,29.97,NE,34,0.0,0.0,98,0.00,,---,0.26,VWS V14.01,2013-08-23 03:41:00,
2013-08-22 23:46:00,65.7,65.1,29.97,NE,34,0.0,0.0,98,0.00,,---,0.26,VWS V14.01,2013-08-23 03:46:00,
2013-08-22 23:51:00,65.6,65.0,29.97,NE,34,0.0,0.0,98,0.00,,---,0.26,VWS V14.01,2013-08-23 03:51:00,
2013-08-22 23:56:00,65.5,64.9,29.97,NE,34,0.0,0.0,98,0.00,,---,0.26,VWS V14.01,2013-08-23 03:56:00,